Location: Audruicq
(50.8780°N, 2.0797°E)
Time: 08:08:51
(UTC+00:00)

Cosmos 1726 Rocket - Pass Details

Date: 15 May 2026
Orbit: 555 x 660 km, 82.5° (Epoch: 6 June)

Event Time Altitude Azimuth Distance (km) Brightness Sun altitude
Exits shadow 21:25:49 22° 151° (SSE) 1,234 4.5 -13.4°
Maximum altitude 21:27:57 41° 93° (E) 811 3.9 -13.6°
Drops below altitude 10° 21:31:47 10° 23° (NNE) 1,853 6.5 -13.9°
Sets 21:34:03 0° 16° (NNE) 2,760 7.5 -14.1°
